Location: Unspecified
(0.0000°N, 0.0000°E)
Time: 23:36:00
(UTC+02:00)

AO-40 - Visible Passes

Search period start: 17 September 2014 00:00
Search period end: 27 September 2014 00:00
Orbit: 1080 x 58740 km, 8.4° (Epoch: 16 September)

Date Brightness Start Highest point End Pass type
(mag) Time Alt. Az. Time Alt. Az. Time Alt. Az.
17 Sep ? 05:37:37 34° W 00:49:04 82° S 07:41:05 10° W visible
17 Sep ? 19:55:38 10° E 02:39:49 86° S 11:20:09 10° ENE daylight
18 Sep ? 21:36:53 10° E 04:31:16 78° ENE 06:08:20 10° E visible
20 Sep ? 02:53:12 10° W 03:53:45 18° W 05:33:32 10° W visible
20 Sep ? 21:01:28 10° W 00:45:52 82° S 07:32:03 10° W visible
21 Sep ? 19:50:31 10° E 02:30:49 86° S 10:52:30 10° ENE daylight
22 Sep ? 21:28:00 10° E 04:03:15 74° E 05:39:58 10° E visible
24 Sep ? 02:17:22 10° W 03:26:23 22° W 05:32:24 10° W visible
24 Sep ? 20:33:33 10° W 00:41:15 83° S 07:23:02 10° W visible
25 Sep ? 19:44:28 10° E 02:21:53 87° S 10:24:50 10° ENE daylight
26 Sep ? 21:19:12 10° E 00:00:00 41° E 00:00:00 41° E visible
